^^

..:: Storico WU ::..




Lo storico viene creato da WUnderground con i dati che la stazione Meteomincio invia al loro server. L' aggiornamento viene fatto ogni 5 minuti circa, tuttavia possono esserci intervalli pił ampi a causa di errori, interruzioni di servizio o problemi nell' invio tramite FTP.


Storico stazione MeteoMincio
Giorno Sommario per Gennaio 16, 2022 Unità:  Inglese    Metrico   Entrambi
Giorno Settimana Mese Anno
  Max: Min: Media:
Temperatura: 50 °F 26.6 °F 36.9 °F
Dew Point: 42.8 °F 26.6 °F 33.8 °F
Umidità: 97% 73% 89%
Velocità vento: 6.8mph 0mph 3.4mph
Raffica: 8.1mph - -
Direzione- - WSW
Pressione: 30.3 in 30.2 in -
Precipitazioni: 0.01 in    
 
 
Tabulato Dati per Gennaio 16, 2022
Ora Temperatura Dew Point Pressione Direzione Velocità vento Raffica Umidità Intensità pioggia (oraria) Info solare Situazione
00:04 32 °F 30.2 °F 30.3 in North 1.2 mph 2.5 mph 93% 0 in 0.00 W/m2 unknown
00:09 32 °F 30.2 °F 30.3 in North 1.9 mph 2.5 mph 93% 0 in 0.00 W/m2 unknown
00:14 32 °F 30.2 °F 30.3 in NW 1.9 mph 2.5 mph 94% 0 in 0.00 W/m2 unknown
00:19 32 °F 30.2 °F 30.3 in NW 1.9 mph 3.7 mph 94% 0 in 0.00 W/m2 unknown
00:24 32 °F 30.2 °F 30.3 in NW 2.5 mph 3.7 mph 94% 0 in 0.00 W/m2 unknown
00:29 32 °F 30.2 °F 30.3 in WNW 2.5 mph 3.7 mph 94% 0 in 0.00 W/m2 unknown
00:34 32 °F 30.2 °F 30.3 in WNW 2.5 mph 3.7 mph 94% 0 in 0.00 W/m2 unknown
00:39 30.2 °F 30.2 °F 30.3 in WNW 1.9 mph 3.7 mph 94% 0 in 0.00 W/m2 unknown
00:44 30.2 °F 28.4 °F 30.3 in WNW 1.9 mph 3.1 mph 93% 0 in 0.00 W/m2 unknown
00:49 30.2 °F 28.4 °F 30.3 in WNW 1.2 mph 2.5 mph 94% 0 in 0.00 W/m2 unknown
00:54 30.2 °F 30.2 °F 30.3 in WNW 1.2 mph 2.5 mph 94% 0 in 0.00 W/m2 unknown
00:59 32 °F 30.2 °F 30.3 in WNW 1.2 mph 2.5 mph 94% 0 in 0.00 W/m2 unknown
01:04 32 °F 30.2 °F 30.3 in WNW 1.2 mph 2.5 mph 94% 0 in 0.00 W/m2 unknown
01:09 32 °F 30.2 °F 30.3 in WNW 1.9 mph 2.5 mph 94% 0 in 0.00 W/m2 unknown
01:14 32 °F 30.2 °F 30.3 in WNW 1.2 mph 2.5 mph 94% 0 in 0.00 W/m2 unknown
01:19 32 °F 30.2 °F 30.3 in WNW 1.9 mph 2.5 mph 94% 0 in 0.00 W/m2 unknown
01:24 30.2 °F 30.2 °F 30.3 in WNW 2.5 mph 3.7 mph 94% 0 in 0.00 W/m2 unknown
01:29 30.2 °F 30.2 °F 30.3 in WNW 2.5 mph 3.7 mph 94% 0 in 0.00 W/m2 unknown
01:34 30.2 °F 28.4 °F 30.3 in WNW 1.9 mph 3.1 mph 94% 0 in 0.00 W/m2 unknown
01:39 30.2 °F 28.4 °F 30.3 in WNW 2.5 mph 3.7 mph 94% 0 in 0.00 W/m2 unknown
01:44 30.2 °F 28.4 °F 30.3 in WNW 1.9 mph 3.7 mph 94% 0 in 0.00 W/m2 unknown
01:49 30.2 °F 28.4 °F 30.3 in WNW 1.9 mph 3.7 mph 94% 0 in 0.00 W/m2 unknown
01:54 30.2 °F 28.4 °F 30.3 in WNW 1.9 mph 3.1 mph 94% 0 in 0.00 W/m2 unknown
01:59 30.2 °F 28.4 °F 30.3 in NW 2.5 mph 3.7 mph 94% 0 in 0.00 W/m2 unknown
02:04 30.2 °F 30.2 °F 30.3 in NW 1.9 mph 3.7 mph 95% 0 in 0.00 W/m2 unknown
02:09 32 °F 30.2 °F 30.3 in NW 1.9 mph 3.7 mph 95% 0 in 0.00 W/m2 unknown
02:14 32 °F 30.2 °F 30.3 in NW 1.9 mph 3.1 mph 95% 0 in 0.00 W/m2 unknown
02:19 32 °F 30.2 °F 30.3 in NW 1.2 mph 2.5 mph 94% 0 in 0.00 W/m2 unknown
02:24 30.2 °F 30.2 °F 30.3 in NW 0.6 mph 1.9 mph 94% 0 in 0.00 W/m2 unknown
02:29 30.2 °F 28.4 °F 30.3 in Calm   1.2 mph 94% 0 in 0.00 W/m2 unknown
02:34 30.2 °F 28.4 °F 30.3 in Calm     94% 0 in 0.00 W/m2 unknown
02:39 30.2 °F 28.4 °F 30.3 in Calm     94% 0 in 0.00 W/m2 unknown
02:44 30.2 °F 28.4 °F 30.3 in Calm     94% 0 in 0.00 W/m2 unknown
02:49 30.2 °F 28.4 °F 30.3 in Calm     94% 0 in 0.00 W/m2 unknown
02:54 30.2 °F 28.4 °F 30.3 in Calm     94% 0 in 0.00 W/m2 unknown
02:59 30.2 °F 28.4 °F 30.3 in Calm   1.2 mph 94% 0 in 0.00 W/m2 unknown
03:04 30.2 °F 28.4 °F 30.3 in Calm   1.2 mph 94% 0 in 0.00 W/m2 unknown
03:09 30.2 °F 28.4 °F 30.3 in Calm     94% 0 in 0.00 W/m2 unknown
03:14 30.2 °F 28.4 °F 30.3 in Calm     94% 0 in 0.00 W/m2 unknown
03:19 30.2 °F 28.4 °F 30.3 in Calm     94% 0 in 0.00 W/m2 unknown
03:24 30.2 °F 28.4 °F 30.3 in West 2.5 mph 3.7 mph 95% 0 in 0.00 W/m2 unknown
03:29 30.2 °F 28.4 °F 30.3 in West 2.5 mph 3.7 mph 95% 0 in 0.00 W/m2 unknown
03:34 30.2 °F 28.4 °F 30.3 in WSW 2.5 mph 3.7 mph 95% 0 in 0.00 W/m2 unknown
03:39 30.2 °F 28.4 °F 30.3 in WSW 2.5 mph 3.7 mph 95% 0 in 0.00 W/m2 unknown
03:44 30.2 °F 28.4 °F 30.3 in WSW 2.5 mph 3.7 mph 95% 0 in 0.00 W/m2 unknown
03:49 30.2 °F 28.4 °F 30.3 in WSW 2.5 mph 3.7 mph 95% 0 in 0.00 W/m2 unknown
03:54 30.2 °F 28.4 °F 30.3 in West 1.9 mph 3.7 mph 95% 0 in 0.00 W/m2 unknown
03:59 30.2 °F 28.4 °F 30.3 in West 2.5 mph 3.7 mph 95% 0 in 0.00 W/m2 unknown
04:04 30.2 °F 28.4 °F 30.3 in West 1.9 mph 3.7 mph 95% 0 in 0.00 W/m2 unknown
04:09 30.2 °F 28.4 °F 30.3 in West 1.9 mph 3.7 mph 95% 0 in 0.00 W/m2 unknown
04:14 30.2 °F 28.4 °F 30.3 in WSW 2.5 mph 3.7 mph 95% 0 in 0.00 W/m2 unknown
04:19 30.2 °F 28.4 °F 30.3 in WSW 2.5 mph 3.7 mph 95% 0 in 0.00 W/m2 unknown
04:24 28.4 °F 28.4 °F 30.3 in WSW 2.5 mph 3.7 mph 95% 0 in 0.00 W/m2 unknown
04:29 28.4 °F 28.4 °F 30.3 in WSW 2.5 mph 3.7 mph 95% 0 in 0.00 W/m2 unknown
04:34 28.4 °F 26.6 °F 30.3 in WSW 2.5 mph 3.7 mph 95% 0 in 0.00 W/m2 unknown
04:39 28.4 °F 28.4 °F 30.3 in WSW 2.5 mph 3.7 mph 95% 0 in 0.00 W/m2 unknown
04:44 28.4 °F 28.4 °F 30.3 in WSW 2.5 mph 3.7 mph 95% 0 in 0.00 W/m2 unknown
04:49 28.4 °F 28.4 °F 30.3 in WSW 2.5 mph 3.7 mph 95% 0 in 0.00 W/m2 unknown
04:54 28.4 °F 28.4 °F 30.3 in WSW 3.1 mph 3.7 mph 95% 0 in 0.00 W/m2 unknown
04:59 28.4 °F 28.4 °F 30.3 in WSW 2.5 mph 3.7 mph 95% 0 in 0.00 W/m2 unknown
05:04 28.4 °F 28.4 °F 30.3 in WSW 2.5 mph 3.7 mph 95% 0 in 0.00 W/m2 unknown
05:09 28.4 °F 28.4 °F 30.3 in WSW 3.1 mph 3.7 mph 95% 0 in 0.00 W/m2 unknown
05:14 28.4 °F 28.4 °F 30.3 in WSW 3.1 mph 3.7 mph 96% 0 in 0.00 W/m2 unknown
05:19 30.2 °F 28.4 °F 30.3 in WSW 1.9 mph 3.1 mph 96% 0 in 0.00 W/m2 unknown
05:24 30.2 °F 28.4 °F 30.3 in WSW 0.6 mph 1.9 mph 96% 0 in 0.00 W/m2 unknown
05:29 30.2 °F 28.4 °F 30.3 in WSW 1.2 mph 1.9 mph 96% 0 in 0.00 W/m2 unknown
05:34 30.2 °F 28.4 °F 30.3 in WSW 2.5 mph 3.7 mph 95% 0 in 0.00 W/m2 unknown
05:39 28.4 °F 28.4 °F 30.3 in WSW 2.5 mph 3.7 mph 95% 0 in 0.00 W/m2 unknown
05:44 28.4 °F 28.4 °F 30.3 in WSW 1.9 mph 3.7 mph 95% 0 in 0.00 W/m2 unknown
05:49 28.4 °F 28.4 °F 30.3 in WSW 2.5 mph 3.7 mph 95% 0 in 0.00 W/m2 unknown
05:54 28.4 °F 28.4 °F 30.3 in WSW 2.5 mph 3.7 mph 95% 0 in 0.00 W/m2 unknown
05:59 28.4 °F 26.6 °F 30.3 in WSW 3.1 mph 3.7 mph 95% 0 in 0.00 W/m2 unknown
06:04 28.4 °F 26.6 °F 30.3 in WSW 3.1 mph 3.7 mph 95% 0 in 0.00 W/m2 unknown
06:09 28.4 °F 26.6 °F 30.3 in WSW 3.1 mph 3.7 mph 95% 0 in 0.00 W/m2 unknown
06:14 28.4 °F 26.6 °F 30.3 in WSW 2.5 mph 3.7 mph 95% 0 in 0.00 W/m2 unknown
06:19 28.4 °F 26.6 °F 30.3 in WSW 3.1 mph 3.7 mph 95% 0 in 0.00 W/m2 unknown
06:24 28.4 °F 26.6 °F 30.3 in WSW 2.5 mph 3.7 mph 96% 0 in 0.00 W/m2 unknown
06:29 28.4 °F 26.6 °F 30.3 in WSW 2.5 mph 3.7 mph 96% 0 in 0.00 W/m2 unknown
06:34 28.4 °F 26.6 °F 30.3 in WSW 2.5 mph 3.7 mph 96% 0 in 0.00 W/m2 unknown
06:39 28.4 °F 26.6 °F 30.3 in WSW 3.1 mph 3.7 mph 96% 0 in 0.00 W/m2 unknown
06:44 28.4 °F 26.6 °F 30.3 in WSW 3.1 mph 3.7 mph 96% 0 in 0.00 W/m2 unknown
06:49 28.4 °F 28.4 °F 30.3 in WSW 3.1 mph 3.7 mph 96% 0 in 0.00 W/m2 unknown
06:54 28.4 °F 28.4 °F 30.3 in WSW 4.3 mph 5 mph 96% 0 in 0.00 W/m2 unknown
06:59 28.4 °F 28.4 °F 30.3 in WSW 5 mph 5 mph 96% 0 in 0.00 W/m2 unknown
07:04 28.4 °F 28.4 °F 30.3 in WSW 3.7 mph 5 mph 96% 0 in 0.00 W/m2 unknown
07:09 28.4 °F 26.6 °F 30.3 in WSW 3.1 mph 5 mph 96% 0 in 0.00 W/m2 unknown
07:14 28.4 °F 26.6 °F 30.3 in WSW 3.7 mph 3.7 mph 96% 0 in 0.00 W/m2 unknown
07:19 28.4 °F 26.6 °F 30.3 in WSW 4.3 mph 5 mph 96% 0 in 0.00 W/m2 unknown
07:24 28.4 °F 26.6 °F 30.3 in WSW 4.3 mph 5 mph 96% 0 in 0.00 W/m2 unknown
07:29 28.4 °F 26.6 °F 30.3 in WSW 4.3 mph 5 mph 96% 0 in 0.00 W/m2 unknown
07:34 28.4 °F 28.4 °F 30.3 in West 3.7 mph 5 mph 96% 0 in 0.00 W/m2 unknown
07:39 28.4 °F 28.4 °F 30.3 in West 3.1 mph 5 mph 97% 0 in 0.00 W/m2 unknown
07:44 28.4 °F 28.4 °F 30.3 in West 2.5 mph 3.7 mph 97% 0 in 0.00 W/m2 unknown
07:49 28.4 °F 28.4 °F 30.3 in West 2.5 mph 3.7 mph 96% 0 in 0.00 W/m2 unknown
07:54 28.4 °F 26.6 °F 30.3 in WNW 2.5 mph 3.7 mph 96% 0 in 5.00 W/m2 unknown
07:59 28.4 °F 26.6 °F 30.3 in West 1.9 mph 3.7 mph 96% 0 in 7.00 W/m2 unknown
08:04 28.4 °F 26.6 °F 30.3 in West 2.5 mph 3.7 mph 96% 0 in 9.00 W/m2 unknown
08:09 28.4 °F 26.6 °F 30.3 in West 3.1 mph 3.7 mph 96% 0 in 12.00 W/m2 unknown
08:14 26.6 °F 26.6 °F 30.3 in West 2.5 mph 3.7 mph 96% 0 in 14.00 W/m2 unknown
08:19 26.6 °F 26.6 °F 30.3 in West 3.7 mph 3.7 mph 96% 0 in 18.00 W/m2 unknown
08:24 26.6 °F 26.6 °F 30.3 in West 3.7 mph 5 mph 96% 0 in 19.00 W/m2 unknown
08:29 28.4 °F 26.6 °F 30.3 in WSW 3.7 mph 5 mph 96% 0 in 23.00 W/m2 unknown
08:34 28.4 °F 26.6 °F 30.3 in WSW 3.7 mph 5 mph 96% 0 in 26.00 W/m2 unknown
08:39 28.4 °F 28.4 °F 30.3 in WSW 3.1 mph 5 mph 96% 0 in 28.00 W/m2 unknown
08:44 28.4 °F 28.4 °F 30.3 in WSW 3.1 mph 3.7 mph 97% 0 in 32.00 W/m2 unknown
08:49 30.2 °F 28.4 °F 30.3 in WSW 3.1 mph 3.7 mph 97% 0 in 33.00 W/m2 unknown
08:54 30.2 °F 28.4 °F 30.3 in WSW 3.1 mph 3.7 mph 97% 0 in 35.00 W/m2 unknown
08:59 30.2 °F 30.2 °F 30.3 in WSW 3.1 mph 3.7 mph 97% 0 in 39.00 W/m2 unknown
09:04 30.2 °F 30.2 °F 30.3 in West 3.1 mph 3.7 mph 97% 0 in 44.00 W/m2 unknown
09:09 30.2 °F 30.2 °F 30.3 in WSW 3.1 mph 3.7 mph 97% 0 in 105.00 W/m2 unknown
09:14 32 °F 30.2 °F 30.3 in WSW 4.3 mph 5 mph 96% 0 in 118.00 W/m2 unknown
09:19 32 °F 30.2 °F 30.3 in WSW 3.1 mph 5 mph 96% 0 in 127.00 W/m2 unknown
09:24 32 °F 30.2 °F 30.3 in WSW 3.1 mph 3.7 mph 96% 0 in 139.00 W/m2 unknown
09:29 32 °F 32 °F 30.3 in WSW 3.1 mph 3.7 mph 96% 0 in 153.00 W/m2 unknown
09:34 32 °F 32 °F 30.3 in WSW 3.1 mph 3.7 mph 96% 0.01 in 162.00 W/m2 unknown
09:39 33.8 °F 32 °F 30.3 in WSW 4.3 mph 5 mph 95% 0.01 in 171.00 W/m2 unknown
09:44 33.8 °F 32 °F 30.3 in WSW 4.3 mph 6.2 mph 95% 0.01 in 178.00 W/m2 unknown
09:49 33.8 °F 32 °F 30.3 in WSW 5 mph 6.2 mph 95% 0.01 in 188.00 W/m2 unknown
09:54 35.6 °F 33.8 °F 30.3 in West 3.7 mph 6.2 mph 94% 0.01 in 197.00 W/m2 unknown
09:59 35.6 °F 33.8 °F 30.3 in West 3.1 mph 5 mph 93% 0.01 in 206.00 W/m2 unknown
10:04 35.6 °F 33.8 °F 30.3 in West 3.7 mph 5 mph 93% 0.01 in 214.00 W/m2 unknown
10:09 35.6 °F 33.8 °F 30.3 in West 5 mph 6.2 mph 92% 0.01 in 220.00 W/m2 unknown
10:14 37.4 °F 33.8 °F 30.3 in West 5 mph 6.2 mph 91% 0.01 in 230.00 W/m2 unknown
10:19 37.4 °F 35.6 °F 30.3 in West 5 mph 6.8 mph 90% 0.01 in 239.00 W/m2 unknown
10:24 37.4 °F 35.6 °F 30.3 in West 5 mph 6.8 mph 89% 0.01 in 246.00 W/m2 unknown
10:29 37.4 °F 35.6 °F 30.3 in West 5 mph 6.8 mph 89% 0.01 in 253.00 W/m2 unknown
10:34 39.2 °F 35.6 °F 30.3 in West 5 mph 6.8 mph 88% 0 in 262.00 W/m2 unknown
10:39 39.2 °F 35.6 °F 30.3 in West 5 mph 6.8 mph 88% 0 in 269.00 W/m2 unknown
10:44 39.2 °F 35.6 °F 30.3 in West 5 mph 6.8 mph 88% 0 in 276.00 W/m2 unknown
10:49 39.2 °F 35.6 °F 30.3 in West 6.2 mph 8.1 mph 87% 0 in 283.00 W/m2 unknown
10:54 39.2 °F 35.6 °F 30.3 in WNW 5.6 mph 8.1 mph 87% 0 in 290.00 W/m2 unknown
10:59 39.2 °F 35.6 °F 30.3 in West 5 mph 6.8 mph 86% 0 in 299.00 W/m2 unknown
11:04 41 °F 37.4 °F 30.3 in West 5 mph 6.2 mph 86% 0 in 309.00 W/m2 unknown
11:09 41 °F 37.4 °F 30.3 in West 5 mph 6.8 mph 86% 0 in 316.00 W/m2 unknown
11:14 41 °F 37.4 °F 30.3 in West 5 mph 6.8 mph 85% 0 in 323.00 W/m2 unknown
11:19 42.8 °F 37.4 °F 30.3 in West 5.6 mph 6.8 mph 85% 0 in 330.00 W/m2 unknown
11:24 42.8 °F 37.4 °F 30.3 in West 5 mph 6.2 mph 85% 0 in 336.00 W/m2 unknown
11:29 42.8 °F 37.4 °F 30.3 in West 5 mph 6.2 mph 84% 0 in 341.00 W/m2 unknown
11:34 42.8 °F 37.4 °F 30.3 in West 5 mph 6.2 mph 84% 0 in 346.00 W/m2 unknown
11:39 42.8 °F 39.2 °F 30.3 in West 4.3 mph 6.2 mph 83% 0 in 352.00 W/m2 unknown
11:44 44.6 °F 39.2 °F 30.3 in WNW 4.3 mph 6.8 mph 83% 0 in 355.00 W/m2 unknown
11:49 44.6 °F 39.2 °F 30.3 in West 5.6 mph 6.8 mph 83% 0 in 357.00 W/m2 unknown
11:54 44.6 °F 39.2 °F 30.3 in West 5.6 mph 6.8 mph 82% 0 in 360.00 W/m2 unknown
11:59 44.6 °F 39.2 °F 30.3 in West 5.6 mph 6.8 mph 82% 0 in 362.00 W/m2 unknown
12:04 44.6 °F 39.2 °F 30.3 in West 6.2 mph 6.8 mph 82% 0 in 366.00 W/m2 unknown
12:09 44.6 °F 39.2 °F 30.3 in West 6.2 mph 8.1 mph 81% 0 in 367.00 W/m2 unknown
12:14 46.4 °F 39.2 °F 30.2 in West 6.2 mph 8.1 mph 82% 0 in 369.00 W/m2 unknown
12:19 46.4 °F 39.2 °F 30.2 in West 5.6 mph 6.8 mph 81% 0 in 369.00 W/m2 unknown
12:24 46.4 °F 41 °F 30.2 in WSW 5 mph 6.2 mph 81% 0 in 369.00 W/m2 unknown
12:29 46.4 °F 41 °F 30.2 in West 5.6 mph 6.8 mph 81% 0 in 373.00 W/m2 unknown
12:34 46.4 °F 41 °F 30.2 in West 6.2 mph 8.1 mph 80% 0 in 373.00 W/m2 unknown
12:39 46.4 °F 41 °F 30.2 in West 6.2 mph 8.1 mph 80% 0 in 371.00 W/m2 unknown
12:44 46.4 °F 41 °F 30.2 in West 6.8 mph 8.1 mph 79% 0 in 373.00 W/m2 unknown
12:49 46.4 °F 41 °F 30.2 in West 6.8 mph 8.1 mph 78% 0 in 371.00 W/m2 unknown
12:54 48.2 °F 41 °F 30.2 in West 6.2 mph 8.1 mph 78% 0 in 371.00 W/m2 unknown
12:59 48.2 °F 41 °F 30.2 in WSW 6.8 mph 8.1 mph 78% 0 in 371.00 W/m2 unknown
13:04 48.2 °F 41 °F 30.2 in WSW 6.2 mph 8.1 mph 78% 0 in 369.00 W/m2 unknown
13:09 48.2 °F 41 °F 30.2 in WSW 6.2 mph 8.1 mph 80% 0 in 366.00 W/m2 unknown
13:14 48.2 °F 41 °F 30.2 in WSW 6.2 mph 8.1 mph 79% 0 in 366.00 W/m2 unknown
13:19 48.2 °F 41 °F 30.2 in WSW 6.2 mph 6.8 mph 77% 0 in 364.00 W/m2 unknown
13:24 48.2 °F 41 °F 30.2 in WSW 6.2 mph 8.1 mph 78% 0 in 360.00 W/m2 unknown
13:29 48.2 °F 41 °F 30.2 in SW 6.2 mph 8.1 mph 77% 0 in 359.00 W/m2 unknown
13:34 48.2 °F 41 °F 30.2 in SW 5 mph 6.8 mph 77% 0 in 355.00 W/m2 unknown
13:39 48.2 °F 41 °F 30.2 in SW 5 mph 6.8 mph 77% 0 in 350.00 W/m2 unknown
13:44 48.2 °F 41 °F 30.2 in WSW 5.6 mph 6.8 mph 76% 0 in 346.00 W/m2 unknown
13:49 48.2 °F 41 °F 30.2 in WSW 5 mph 6.8 mph 77% 0 in 339.00 W/m2 unknown
13:54 48.2 °F 42.8 °F 30.2 in WSW 5 mph 6.8 mph 77% 0 in 336.00 W/m2 unknown
13:59 48.2 °F 41 °F 30.2 in WSW 5.6 mph 6.8 mph 76% 0 in 329.00 W/m2 unknown
14:04 48.2 °F 41 °F 30.2 in WSW 5.6 mph 6.8 mph 76% 0 in 322.00 W/m2 unknown
14:09 48.2 °F 41 °F 30.2 in WSW 5 mph 6.8 mph 76% 0 in 315.00 W/m2 unknown
14:14 48.2 °F 41 °F 30.2 in WSW 5 mph 6.8 mph 76% 0 in 309.00 W/m2 unknown
14:19 48.2 °F 41 °F 30.2 in WSW 5 mph 6.2 mph 76% 0 in 306.00 W/m2 unknown
14:24 48.2 °F 42.8 °F 30.2 in WSW 4.3 mph 6.2 mph 76% 0 in 301.00 W/m2 unknown
14:29 50 °F 42.8 °F 30.2 in WSW 5.6 mph 6.8 mph 76% 0 in 294.00 W/m2 unknown
14:34 50 °F 42.8 °F 30.2 in WSW 6.2 mph 6.8 mph 76% 0 in 285.00 W/m2 unknown
14:39 50 °F 41 °F 30.2 in WSW 5.6 mph 6.8 mph 75% 0 in 278.00 W/m2 unknown
14:44 50 °F 42.8 °F 30.2 in WSW 5.6 mph 6.8 mph 76% 0 in 267.00 W/m2 unknown
14:49 50 °F 42.8 °F 30.2 in WSW 6.2 mph 6.8 mph 76% 0 in 260.00 W/m2 unknown
14:54 50 °F 42.8 °F 30.2 in WSW 5.6 mph 8.1 mph 75% 0 in 251.00 W/m2 unknown
14:59 50 °F 41 °F 30.2 in WSW 5.6 mph 8.1 mph 74% 0 in 243.00 W/m2 unknown
15:04 50 °F 42.8 °F 30.2 in WSW 5.6 mph 8.1 mph 75% 0 in 230.00 W/m2 unknown
15:09 50 °F 41 °F 30.2 in West 5.6 mph 6.8 mph 74% 0 in 221.00 W/m2 unknown
15:14 50 °F 41 °F 30.2 in West 5 mph 6.8 mph 73% 0 in 213.00 W/m2 unknown
15:19 50 °F 42.8 °F 30.2 in West 5 mph 6.2 mph 74% 0 in 200.00 W/m2 unknown
15:24 50 °F 42.8 °F 30.2 in West 5.6 mph 6.8 mph 74% 0 in 190.00 W/m2 unknown
15:29 50 °F 41 °F 30.2 in WSW 5 mph 6.8 mph 73% 0 in 172.00 W/m2 unknown
15:34 50 °F 42.8 °F 30.2 in West 3.1 mph 5 mph 73% 0 in 171.00 W/m2 unknown
15:39 50 °F 41 °F 30.2 in WSW 4.3 mph 5 mph 73% 0 in 156.00 W/m2 unknown
15:44 50 °F 41 °F 30.2 in WSW 4.3 mph 5 mph 73% 0 in 144.00 W/m2 unknown
15:49 50 °F 41 °F 30.2 in WSW 4.3 mph 5 mph 74% 0 in 132.00 W/m2 unknown
15:54 50 °F 41 °F 30.2 in WSW 3.1 mph 5 mph 75% 0 in 120.00 W/m2 unknown
15:59 50 °F 41 °F 30.2 in West 3.7 mph 5 mph 75% 0 in 105.00 W/m2 unknown
16:04 48.2 °F 41 °F 30.2 in WSW 3.1 mph 3.7 mph 76% 0 in 90.00 W/m2 unknown
16:09 48.2 °F 41 °F 30.2 in SW 3.1 mph 3.7 mph 77% 0 in 37.00 W/m2 unknown
16:14 48.2 °F 42.8 °F 30.2 in SW 3.1 mph 3.7 mph 79% 0 in 35.00 W/m2 unknown
16:19 48.2 °F 42.8 °F 30.2 in SW 2.5 mph 3.7 mph 80% 0 in 32.00 W/m2 unknown
16:24 48.2 °F 42.8 °F 30.2 in SW 2.5 mph 3.7 mph 80% 0 in 28.00 W/m2 unknown
16:29 48.2 °F 41 °F 30.2 in SW 2.5 mph 3.7 mph 80% 0 in 26.00 W/m2 unknown
16:34 46.4 °F 41 °F 30.2 in SW 3.1 mph 3.7 mph 81% 0 in 25.00 W/m2 unknown
16:39 46.4 °F 41 °F 30.2 in SW 2.5 mph 3.7 mph 81% 0 in 19.00 W/m2 unknown
16:44 46.4 °F 41 °F 30.2 in SW 3.1 mph 3.7 mph 81% 0 in 18.00 W/m2 unknown
16:49 46.4 °F 41 °F 30.2 in SW 3.1 mph 3.7 mph 82% 0 in 14.00 W/m2 unknown
16:54 46.4 °F 41 °F 30.2 in SW 3.1 mph 3.7 mph 82% 0 in 11.00 W/m2 unknown
16:59 44.6 °F 41 °F 30.2 in SW 2.5 mph 3.7 mph 82% 0 in 7.00 W/m2 unknown
17:04 44.6 °F 39.2 °F 30.2 in SW 2.5 mph 3.7 mph 83% 0 in 5.00 W/m2 unknown
17:09 44.6 °F 39.2 °F 30.2 in SSW 2.5 mph 3.7 mph 84% 0 in 0.00 W/m2 unknown
17:14 44.6 °F 39.2 °F 30.2 in SW 2.5 mph 3.7 mph 84% 0 in 0.00 W/m2 unknown
17:19 44.6 °F 39.2 °F 30.2 in SW 1.9 mph 3.7 mph 85% 0 in 0.00 W/m2 unknown
17:24 42.8 °F 39.2 °F 30.2 in WSW 1.9 mph 3.7 mph 86% 0 in 0.00 W/m2 unknown
17:29 42.8 °F 39.2 °F 30.2 in SW 2.5 mph 3.7 mph 86% 0 in 0.00 W/m2 unknown
17:34 42.8 °F 39.2 °F 30.2 in SW 2.5 mph 3.7 mph 87% 0 in 0.00 W/m2 unknown
17:39 42.8 °F 39.2 °F 30.2 in SW 2.5 mph 3.7 mph 87% 0 in 0.00 W/m2 unknown
17:44 42.8 °F 37.4 °F 30.2 in SW 3.1 mph 3.7 mph 87% 0 in 0.00 W/m2 unknown
17:49 41 °F 37.4 °F 30.2 in SW 3.1 mph 3.7 mph 87% 0 in 0.00 W/m2 unknown
17:54 41 °F 37.4 °F 30.2 in SW 3.7 mph 5 mph 88% 0 in 0.00 W/m2 unknown
17:59 41 °F 37.4 °F 30.2 in SW 3.7 mph 5 mph 88% 0 in 0.00 W/m2 unknown
18:04 41 °F 37.4 °F 30.2 in SW 3.7 mph 5 mph 87% 0 in 0.00 W/m2 unknown
18:09 41 °F 37.4 °F 30.2 in SW 3.1 mph 5 mph 87% 0 in 0.00 W/m2 unknown
18:14 42.8 °F 39.2 °F 30.2 in SW 3.7 mph 5 mph 87% 0 in 0.00 W/m2 unknown
18:19 42.8 °F 39.2 °F 30.2 in SW 3.1 mph 5 mph 87% 0 in 0.00 W/m2 unknown
18:24 42.8 °F 37.4 °F 30.2 in SW 3.7 mph 5 mph 87% 0 in 0.00 W/m2 unknown
18:29 42.8 °F 37.4 °F 30.2 in SW 3.1 mph 3.7 mph 87% 0 in 0.00 W/m2 unknown
18:34 41 °F 37.4 °F 30.2 in SW 2.5 mph 3.7 mph 88% 0 in 0.00 W/m2 unknown
18:39 41 °F 37.4 °F 30.2 in SSW 2.5 mph 3.7 mph 89% 0 in 0.00 W/m2 unknown
18:44 41 °F 37.4 °F 30.2 in SSW 2.5 mph 3.7 mph 89% 0 in 0.00 W/m2 unknown
18:49 41 °F 37.4 °F 30.2 in SSW 3.1 mph 3.7 mph 89% 0 in 0.00 W/m2 unknown
18:54 41 °F 37.4 °F 30.2 in SW 3.1 mph 3.7 mph 89% 0 in 0.00 W/m2 unknown
18:59 41 °F 37.4 °F 30.2 in SW 3.7 mph 3.7 mph 89% 0 in 0.00 W/m2 unknown
19:04 39.2 °F 37.4 °F 30.2 in SW 3.1 mph 3.7 mph 89% 0 in 0.00 W/m2 unknown
19:09 39.2 °F 37.4 °F 30.2 in SW 2.5 mph 3.7 mph 90% 0 in 0.00 W/m2 unknown
19:14 39.2 °F 37.4 °F 30.2 in SW 3.7 mph 3.7 mph 90% 0 in 0.00 W/m2 unknown
19:19 39.2 °F 35.6 °F 30.2 in SW 3.7 mph 3.7 mph 90% 0 in 0.00 W/m2 unknown
19:24 39.2 °F 35.6 °F 30.2 in SW 4.3 mph 5 mph 91% 0 in 0.00 W/m2 unknown
19:29 39.2 °F 35.6 °F 30.2 in SW 3.7 mph 5 mph 91% 0 in 0.00 W/m2 unknown
19:34 39.2 °F 35.6 °F 30.2 in SW 3.7 mph 5 mph 90% 0 in 0.00 W/m2 unknown
19:39 37.4 °F 35.6 °F 30.2 in SW 3.1 mph 3.7 mph 91% 0 in 0.00 W/m2 unknown
19:44 37.4 °F 35.6 °F 30.2 in SW 1.9 mph 3.1 mph 92% 0 in 0.00 W/m2 unknown
19:49 37.4 °F 35.6 °F 30.2 in WSW 2.5 mph 3.7 mph 91% 0 in 0.00 W/m2 unknown
19:54 37.4 °F 35.6 °F 30.2 in WSW 2.5 mph 3.7 mph 91% 0 in 0.00 W/m2 unknown
19:59 37.4 °F 33.8 °F 30.2 in WSW 2.5 mph 3.7 mph 91% 0 in 0.00 W/m2 unknown
20:04 35.6 °F 33.8 °F 30.2 in SW 2.5 mph 3.7 mph 92% 0 in 0.00 W/m2 unknown
20:09 35.6 °F 33.8 °F 30.2 in SW 1.2 mph 3.1 mph 93% 0 in 0.00 W/m2 unknown
20:14 35.6 °F 33.8 °F 30.2 in SW 2.5 mph 3.7 mph 93% 0 in 0.00 W/m2 unknown
20:19 35.6 °F 33.8 °F 30.2 in SW 2.5 mph 3.7 mph 93% 0 in 0.00 W/m2 unknown
20:24 35.6 °F 33.8 °F 30.2 in NW 1.9 mph 3.1 mph 93% 0 in 0.00 W/m2 unknown
20:29 35.6 °F 33.8 °F 30.2 in WNW 1.9 mph 2.5 mph 93% 0 in 0.00 W/m2 unknown
20:34 35.6 °F 33.8 °F 30.2 in West 2.5 mph 3.7 mph 93% 0 in 0.00 W/m2 unknown
20:39 35.6 °F 33.8 °F 30.2 in West 2.5 mph 3.7 mph 93% 0 in 0.00 W/m2 unknown
20:44 35.6 °F 33.8 °F 30.2 in West 2.5 mph 3.7 mph 93% 0 in 0.00 W/m2 unknown
20:49 35.6 °F 33.8 °F 30.2 in WSW 2.5 mph 3.7 mph 93% 0 in 0.00 W/m2 unknown
20:54 35.6 °F 33.8 °F 30.3 in WSW 2.5 mph 3.7 mph 93% 0 in 0.00 W/m2 unknown
20:59 35.6 °F 33.8 °F 30.3 in WSW 3.1 mph 5 mph 93% 0 in 0.00 W/m2 unknown
21:04 35.6 °F 33.8 °F 30.3 in WSW 3.7 mph 5 mph 93% 0 in 0.00 W/m2 unknown
21:09 35.6 °F 33.8 °F 30.3 in WSW 3.1 mph 5 mph 93% 0 in 0.00 W/m2 unknown
21:14 35.6 °F 33.8 °F 30.3 in WSW 3.1 mph 3.7 mph 93% 0 in 0.00 W/m2 unknown
21:19 35.6 °F 33.8 °F 30.3 in West 3.1 mph 3.7 mph 92% 0 in 0.00 W/m2 unknown
21:24 35.6 °F 33.8 °F 30.3 in West 3.7 mph 5 mph 92% 0 in 0.00 W/m2 unknown
21:29 35.6 °F 33.8 °F 30.3 in West 4.3 mph 6.2 mph 91% 0 in 0.00 W/m2 unknown
21:34 35.6 °F 33.8 °F 30.3 in West 5 mph 6.2 mph 91% 0 in 0.00 W/m2 unknown
21:39 35.6 °F 33.8 °F 30.3 in WSW 5 mph 6.2 mph 91% 0 in 0.00 W/m2 unknown
21:44 35.6 °F 33.8 °F 30.3 in WSW 5 mph 6.2 mph 91% 0 in 0.00 W/m2 unknown
21:49 35.6 °F 33.8 °F 30.3 in WSW 5.6 mph 6.8 mph 91% 0 in 0.00 W/m2 unknown
21:54 37.4 °F 33.8 °F 30.3 in WSW 6.2 mph 6.8 mph 90% 0 in 0.00 W/m2 unknown
21:59 37.4 °F 33.8 °F 30.3 in WSW 3.7 mph 6.8 mph 90% 0 in 0.00 W/m2 unknown
22:04 37.4 °F 33.8 °F 30.3 in WSW 3.1 mph 5 mph 89% 0 in 0.00 W/m2 unknown
22:09 37.4 °F 33.8 °F 30.3 in WSW 3.1 mph 3.7 mph 89% 0 in 0.00 W/m2 unknown
22:14 35.6 °F 33.8 °F 30.3 in WNW 2.5 mph 3.7 mph 90% 0 in 0.00 W/m2 unknown
22:19 35.6 °F 33.8 °F 30.3 in WNW 3.7 mph 3.7 mph 90% 0 in 0.00 W/m2 unknown
22:24 35.6 °F 33.8 °F 30.3 in West 3.7 mph 5 mph 90% 0 in 0.00 W/m2 unknown
22:29 35.6 °F 32 °F 30.3 in West 5 mph 6.2 mph 90% 0 in 0.00 W/m2 unknown
22:34 33.8 °F 32 °F 30.3 in WSW 5 mph 6.2 mph 91% 0 in 0.00 W/m2 unknown
22:39 33.8 °F 32 °F 30.3 in WSW 3.7 mph 6.2 mph 92% 0 in 0.00 W/m2 unknown
22:44 33.8 °F 32 °F 30.3 in WSW 3.7 mph 5 mph 92% 0 in 0.00 W/m2 unknown
22:49 33.8 °F 32 °F 30.3 in WSW 4.3 mph 5 mph 92% 0 in 0.00 W/m2 unknown
22:54 35.6 °F 32 °F 30.3 in WSW 3.7 mph 5 mph 92% 0 in 0.00 W/m2 unknown
22:59 35.6 °F 32 °F 30.3 in WSW 4.3 mph 6.2 mph 92% 0 in 0.00 W/m2 unknown
23:04 35.6 °F 33.8 °F 30.3 in WSW 4.3 mph 6.2 mph 92% 0 in 0.00 W/m2 unknown
23:09 35.6 °F 33.8 °F 30.3 in WSW 3.1 mph 6.2 mph 92% 0 in 0.00 W/m2 unknown
23:14 35.6 °F 33.8 °F 30.3 in West 2.5 mph 3.7 mph 92% 0 in 0.00 W/m2 unknown
23:19 35.6 °F 33.8 °F 30.3 in West 3.1 mph 3.7 mph 92% 0 in 0.00 W/m2 unknown
23:24 35.6 °F 33.8 °F 30.3 in WSW 3.1 mph 3.7 mph 91% 0 in 0.00 W/m2 unknown
23:29 33.8 °F 32 °F 30.3 in WSW 3.1 mph 5 mph 92% 0 in 0.00 W/m2 unknown
23:34 33.8 °F 32 °F 30.3 in WSW 3.1 mph 5 mph 93% 0 in 0.00 W/m2 unknown
23:39 33.8 °F 32 °F 30.3 in WSW 2.5 mph 3.7 mph 93% 0 in 0.00 W/m2 unknown
23:44 33.8 °F 32 °F 30.3 in WSW 2.5 mph 3.7 mph 93% 0 in 0.00 W/m2 unknown
23:49 33.8 °F 32 °F 30.3 in WNW 1.2 mph 3.1 mph 93% 0 in 0.00 W/m2 unknown
23:54 33.8 °F 32 °F 30.3 in WNW 1.2 mph 2.5 mph 93% 0 in 0.00 W/m2 unknown
23:59 33.8 °F 32 °F 30.3 in West 1.9 mph 2.5 mph 93% 0 in 0.00 W/m2 unknown
Stazione Meteorologica MeteoMincio Rivalta s/M (MN)
Con i complimenti di Weather Underground - 4 mb



GLOSSARIO METEOROLOGICO
Temperatura
Esprime il grado d'agitazione delle molecole d'aria, impiegando una grandezza scalare chiamata appunto 'grado'. In Italia viene correntemente impiegato il 'grado centigrado', detto anche 'grado Celsius', il cui simbolo è: °C. Tale unità di misura è definita in modo che i valori 0°C e 100°C corrispondano rispettivamente al punto di fusione e al punto d'ebollizione dell'acqua a pressione atmosferica normale.
Share

Non seguire questo link o sarai bannato dal sito!